Location: Newark
(42.7133°N, 87.7910°W)
Time: 01:48:52
(UTC+00:00)

Vanguard 1 - Pass Details

Date: 28 September 2019
Orbit: 653 x 3830 km, 34.3° (Epoch: 12 October)

Event Time Altitude Azimuth Distance (km) Brightness Sun altitude
Rises 02:22:49 0° 176° (S) 6,182 13.9 -29.7°
Enters shadow 02:23:33 - 174° (S) 6,115 13.8 -29.9°
Reaches altitude 10° 02:29:12 10° 157° (SSE) 5,766 - -30.8°
Maximum altitude 02:38:54 16° 125° (SE) 5,890 - -32.3°
Drops below altitude 10° 02:50:08 10° 95° (E) 6,878 - -34.0°
Sets 02:58:58 0° 78° (ENE) 7,964 - -35.3°
